Wind_Speed
34 34 35 35 35 34 34 34 34 34 34 34 34 35 34 34 34 34 33 34 34 34 34 34 35 35 36 36 36 37 38 38 39 39 39 39 38 39 39 39 40 41 41
34 34 35 35 35 35 34 34 35 34 35 35 35 35 35 35 35 35 35 35 35 36 36 36 36 37 37 38 38 39 39 40 40 41 41 41 41 41 41 41 42 42 42
34 35 35 35 35 35 34 35 35 35 35 36 36 36 36 36 36 36 36 37 37 37 37 38 38 39 39 40 40 41 41 40 41 42 43 43 42 43 43 43 43 43 44
34 35 35 35 35 35 35 35 35 36 36 36 37 37 37 37 37 38 38 39 39 40 39 39 40 40 41 42 42 43 42 42 43 43 44 45 45 44 44 44 44 45 45
34 35 35 35 35 35 35 36 36 37 37 37 37 38 38 38 39 39 39 40 41 41 40 41 41 42 43 44 44 45 44 43 44 44 44 45 45 45 45 44 45 45 46
34 35 36 35 35 35 36 37 37 37 38 38 37 37 39 39 40 40 41 41 41 42 42 42 42 43 43 44 45 46 45 45 45 45 45 44 45 45 45 45 46 46 47
33 34 35 36 36 36 36 37 38 38 38 38 38 39 39 39 40 40 41 41 41 42 42 43 43 44 44 44 46 46 47 46 46 46 46 46 46 47 46 46 47 47 47
32 33 34 35 36 36 36 36 37 37 38 38 39 40 40 40 40 41 42 42 42 43 44 44 44 44 45 46 47 47 47 48 46 46 47 47 48 49 48 47 47 47 46
31 31 32 34 35 36 36 36 37 37 38 39 39 40 41 41 41 42 42 42 43 43 44 44 45 45 46 47 48 47 47 47 47 47 47 48 48 49 49 48 48 48 47
30 31 32 33 34 35 36 37 37 37 38 39 40 40 41 42 42 42 43 43 44 44 44 45 46 46 47 47 47 47 47 48 48 48 47 47 49 49 50 50 50 49 49
29 30 32 32 34 34 35 36 36 37 38 38 38 40 41 42 43 43 43 44 45 45 45 46 46 46 46 47 47 47 48 48 48 48 48 48 49 49 49 50 50 51 51
29 30 31 31 32 33 34 34 35 36 37 38 38 40 41 42 42 43 43 43 44 45 45 46 46 46 46 47 48 48 48 48 49 49 48 48 49 49 50 50 51 51 51
29 30 31 31 32 33 34 35 35 35 36 37 38 39 40 42 42 43 43 44 44 45 45 46 46 46 47 47 48 48 48 48 49 48 48 48 49 49 50 50 51 51 51
29 30 31 31 31 32 33 34 35 35 36 37 38 39 40 41 42 43 43 44 45 45 45 45 45 45 45 46 47 47 47 48 48 48 48 49 49 48 48 49 50 50 50
29 30 31 32 32 32 33 34 35 36 36 37 37 39 40 41 42 43 44 44 45 45 45 45 45 46 46 46 46 47 47 47 48 48 48 48 48 48 48 48 49 49 50
31 31 32 32 33 33 34 35 36 36 37 38 38 39 40 41 42 43 44 45 45 45 45 45 45 45 45 45 45 46 47 47 47 47 47 47 47 47 48 48 49 50 50
34 33 33 34 34 34 35 35 36 37 38 38 39 40 41 42 43 43 44 45 45 45 45 45 45 45 46 46 46 46 46 46 46 46 47 47 47 48 48 48 49 50 51
35 36 36 35 35 35 36 37 37 37 38 39 40 41 41 42 43 44 44 44 44 44 44 45 45 45 46 46 46 46 46 46 46 46 47 47 47 47 47 47 48 50 51
35 36 37 37 37 36 37 38 39 39 39 40 40 41 41 42 42 43 43 43 43 44 44 45 45 46 46 46 46 45 45 45 46 46 46 47 47 47 48 48 49 49 50
35 35 36 36 37 36 36 37 38 39 40 40 41 42 42 43 43 42 43 43 44 44 44 45 45 45 45 45 45 45 45 44 45 46 46 47 47 47 48 49 49 50 50
34 35 35 35 35 36 37 37 38 39 39 40 41 41 41 41 41 42 42 43 43 44 44 45 44 44 44 44 44 44 44 44 45 46 46 47 47 48 48 49 49 50 50
34 34 35 35 36 36 37 38 38 39 39 39 40 40 40 40 41 42 42 43 43 44 44 44 43 43 43 43 43 44 44 45 45 46 46 46 47 47 48 48 48 49 49
35 35 36 36 36 37 38 38 39 39 39 40 40 40 40 41 41 42 42 43 44 44 44 44 44 44 44 44 44 44 45 46 46 46 46 46 46 46 47 47 47 47 48
35 36 36 36 36 37 38 39 39 40 40 39 39 39 39 40 40 41 42 42 43 43 44 43 43 43 43 43 44 44 45 46 46 46 46 45 45 46 46 47 47 48 48
35 36 36 37 37 38 38 39 39 38 38 38 38 38 38 39 39 39 40 41 41 41 42 42 42 42 42 43 43 44 44 45 45 45 45 45 45 46 46 46 47 47 47
34 35 35 36 37 37 38 37 37 37 37 37 36 37 38 38 38 39 39 39 39 40 40 40 40 40 41 41 42 42 43 43 44 44 45 45 45 46 46 46 46 46 46
Wind_Direction
253 252 252 254 255 255 256 257 256 256 257 259 260 262 264 264 264 266 268 268 269 269 268 269 269 268 267 266 266 265 264 263 264 265 266 267 267 265 265 264 263 262 262
254 254 253 254 255 255 255 256 256 257 258 260 261 261 262 263 264 265 266 268 269 269 269 270 270 269 269 269 268 268 267 265 264 265 266 267 267 266 265 264 263 263 265
254 254 254 255 256 256 256 257 257 258 259 260 260 261 262 262 264 265 266 267 269 270 270 270 270 270 271 270 270 269 269 268 266 266 267 267 267 267 266 265 264 264 265
255 255 255 255 256 256 256 257 258 259 259 260 260 261 262 263 264 265 266 267 268 270 271 271 271 271 271 271 271 271 270 270 269 269 268 267 268 268 266 264 264 265 266
256 255 255 255 255 256 256 256 259 259 259 260 261 261 262 263 264 266 268 269 270 271 272 274 273 272 272 272 272 273 272 270 270 270 269 268 267 267 266 264 265 265 266
257 257 256 256 256 256 257 258 259 260 260 260 260 261 263 264 265 267 268 269 271 272 274 275 275 274 273 274 273 274 273 272 271 270 269 267 266 267 267 267 266 266 266
259 258 257 256 258 258 259 260 260 260 260 260 260 261 263 264 265 267 269 271 273 273 274 274 275 275 275 275 275 274 274 273 271 269 269 267 267 267 269 268 267 266 266
262 259 257 257 258 258 259 260 260 260 260 261 262 262 263 264 266 268 270 272 273 274 275 275 277 276 275 276 275 275 274 273 272 270 269 268 268 268 268 268 267 266 266
264 261 259 258 259 259 259 259 259 259 260 261 263 264 264 264 266 268 269 270 273 274 275 276 277 277 277 276 275 275 274 274 272 271 270 269 269 268 267 268 267 266 266
264 262 261 260 259 259 259 260 261 261 262 262 264 264 264 266 267 268 269 271 272 274 275 276 277 278 277 276 276 275 274 273 273 272 271 270 270 269 268 267 268 268 267
265 264 262 261 261 260 259 261 263 263 263 264 265 265 265 267 269 269 270 272 272 273 274 276 276 277 276 276 276 275 275 274 273 273 272 271 270 269 268 269 269 269 269
266 265 264 264 263 262 261 262 264 265 265 265 267 267 267 268 269 270 271 272 273 274 275 276 277 277 277 277 277 276 275 274 274 274 273 271 270 269 269 270 270 270 270
267 266 265 265 265 263 262 263 264 265 266 267 267 268 269 269 270 271 272 273 275 275 276 277 278 278 279 278 277 276 275 275 275 275 274 272 271 270 271 271 271 271 272
267 266 265 266 266 266 265 265 266 266 267 268 269 270 271 271 271 271 272 274 275 276 277 278 279 279 279 279 277 277 277 276 276 275 274 273 272 272 271 272 272 272 273
265 265 266 267 267 267 266 266 267 268 268 269 271 272 272 272 273 273 273 274 276 277 277 278 279 279 279 279 279 278 278 277 277 276 276 274 274 274 273 273 273 273 273
265 266 267 268 269 269 269 268 268 269 269 270 272 272 273 273 274 274 274 275 276 276 277 278 278 277 278 279 279 278 278 278 277 277 276 275 276 276 275 274 274 274 274
266 267 267 268 269 270 270 270 270 270 270 271 272 273 273 274 274 275 275 276 276 277 277 277 277 277 278 278 279 279 278 277 277 277 276 276 276 276 276 276 275 275 275
269 269 270 269 269 271 271 271 272 273 273 273 274 275 275 275 275 276 276 277 276 277 277 277 277 278 278 278 278 278 278 277 277 277 277 277 277 277 277 276 277 277 277
270 271 270 270 271 272 273 273 273 273 273 274 275 276 276 277 278 278 278 278 277 278 278 277 278 278 278 278 278 278 278 278 278 278 278 277 278 278 277 277 278 279 280
271 272 272 272 273 273 274 274 275 275 275 276 276 277 278 278 278 278 278 278 278 278 278 279 279 279 279 278 278 278 278 278 279 279 279 279 278 278 278 279 279 280 280
272 273 273 274 275 274 275 275 276 276 277 277 277 278 278 278 278 278 278 278 278 278 278 279 279 279 278 277 277 278 278 279 279 280 280 280 279 279 279 280 280 280 280
273 274 274 275 276 276 276 276 277 277 278 279 279 278 278 278 278 278 278 279 279 279 280 279 278 278 277 277 277 277 278 279 280 280 281 280 280 280 280 281 281 281 280
275 275 275 276 277 276 277 277 278 279 280 281 280 279 279 279 279 279 279 279 280 280 280 280 279 278 277 277 277 278 279 280 280 281 281 281 281 281 281 281 281 281 281
276 277 277 277 278 277 278 279 279 280 280 281 281 281 281 281 281 281 282 281 281 281 281 280 279 278 277 278 278 279 280 281 282 282 282 281 281 281 282 282 282 282 282
277 278 278 279 279 280 280 280 280 280 280 281 281 282 282 283 283 282 283 283 283 282 281 281 280 279 279 279 280 280 281 282 282 282 282 282 282 282 282 282 282 282 282
279 279 279 279 280 281 281 280 280 280 280 281 282 283 284 284 284 284 284 284 284 283 282 281 280 280 280 280 281 282 282 282 282 282 282 282 283 282 282 282 282 282 282
Height
5691 5694 5696 5698 5700 5701 5703 5705 5706 5708 5709 5710 5712 5713 5713 5713 5714 5715 5715 5715 5716 5716 5716 5717 5717 5717 5718 5718 5719 5720 5721 5722 5723 5725 5726 5727 5727 5728 5729 5730 5731 5733 5734
5683 5685 5687 5689 5691 5693 5695 5696 5698 5699 5701 5702 5703 5704 5704 5705 5706 5706 5707 5707 5707 5708 5708 5708 5708 5708 5709 5709 5710 5710 5711 5712 5713 5714 5715 5716 5718 5718 5718 5719 5720 5722 5723
5674 5676 5679 5681 5683 5684 5686 5688 5689 5691 5692 5693 5694 5695 5695 5696 5697 5698 5699 5699 5699 5699 5699 5699 5699 5699 5699 5699 5699 5700 5701 5701 5702 5702 5703 5704 5706 5706 5707 5707 5708 5710 5711
5666 5668 5670 5672 5674 5675 5677 5679 5680 5681 5683 5684 5685 5686 5687 5688 5688 5689 5689 5690 5690 5689 5689 5689 5689 5689 5689 5689 5689 5689 5690 5690 5691 5691 5691 5692 5692 5693 5695 5696 5696 5697 5697
5657 5659 5661 5662 5664 5666 5668 5669 5671 5672 5673 5675 5676 5677 5677 5678 5679 5680 5680 5680 5680 5680 5680 5679 5679 5679 5679 5678 5678 5678 5678 5679 5679 5679 5679 5679 5680 5680 5681 5683 5685 5685 5685
5648 5650 5652 5653 5655 5657 5659 5660 5662 5663 5664 5665 5666 5667 5668 5669 5670 5670 5670 5670 5670 5670 5669 5669 5668 5668 5668 5668 5667 5667 5667 5666 5667 5667 5667 5667 5668 5669 5669 5671 5671 5672 5672
5639 5641 5643 5644 5646 5648 5649 5651 5652 5653 5654 5655 5656 5657 5658 5659 5659 5660 5660 5660 5659 5659 5659 5658 5658 5657 5657 5656 5656 5655 5655 5654 5654 5655 5655 5655 5655 5656 5657 5658 5658 5658 5659
5630 5632 5633 5635 5637 5638 5639 5641 5642 5643 5644 5645 5646 5647 5647 5648 5649 5649 5649 5649 5648 5648 5647 5647 5646 5646 5645 5645 5644 5643 5643 5642 5642 5642 5643 5643 5643 5643 5643 5644 5645 5646 5646
5622 5623 5624 5625 5627 5628 5629 5631 5632 5633 5634 5635 5635 5636 5637 5637 5638 5638 5638 5638 5637 5637 5636 5635 5635 5634 5633 5632 5631 5631 5630 5630 5630 5629 5630 5630 5630 5630 5630 5630 5631 5632 5633
5613 5614 5615 5616 5617 5618 5620 5621 5622 5623 5624 5624 5625 5626 5626 5626 5626 5627 5627 5627 5626 5625 5624 5624 5623 5622 5621 5620 5619 5618 5618 5617 5617 5616 5616 5616 5616 5616 5616 5616 5616 5617 5618
5605 5606 5606 5607 5608 5609 5610 5611 5612 5613 5614 5614 5615 5615 5615 5615 5615 5616 5616 5615 5614 5614 5613 5612 5611 5609 5608 5607 5606 5605 5605 5604 5603 5603 5603 5602 5602 5602 5602 5602 5602 5602 5603
5597 5597 5598 5598 5599 5600 5601 5601 5602 5603 5603 5604 5604 5604 5604 5604 5604 5604 5604 5603 5602 5601 5600 5599 5598 5597 5596 5595 5594 5593 5592 5591 5590 5589 5589 5588 5588 5588 5588 5588 5588 5587 5587
5588 5589 5589 5590 5590 5590 5591 5592 5592 5593 5593 5593 5593 5593 5593 5593 5593 5593 5592 5591 5590 5589 5588 5587 5586 5585 5583 5582 5581 5580 5579 5577 5576 5575 5575 5574 5574 5574 5574 5573 5573 5573 5572
5580 5580 5581 5581 5581 5581 5582 5582 5582 5583 5583 5583 5583 5583 5583 5582 5582 5581 5580 5579 5578 5577 5576 5574 5573 5572 5571 5569 5568 5567 5565 5564 5563 5562 5561 5560 5560 5560 5560 5559 5559 5558 5558
5572 5572 5572 5572 5572 5572 5572 5572 5572 5572 5572 5572 5572 5572 5571 5571 5570 5569 5568 5567 5566 5565 5564 5562 5561 5559 5558 5556 5555 5553 5552 5551 5550 5548 5547 5547 5546 5546 5546 5545 5545 5544 5543
5563 5563 5563 5563 5563 5563 5563 5562 5562 5562 5562 5562 5561 5561 5560 5559 5558 5557 5556 5555 5554 5552 5551 5550 5548 5547 5545 5544 5542 5540 5539 5538 5537 5536 5534 5534 5533 5532 5532 5531 5530 5529 5528
5554 5554 5554 5554 5553 5553 5553 5552 5552 5552 5551 5551 5550 5549 5548 5547 5546 5545 5544 5543 5541 5540 5539 5537 5535 5534 5532 5531 5529 5527 5526 5525 5524 5523 5522 5521 5520 5519 5518 5517 5515 5514 5513
5544 5544 5544 5544 5544 5543 5543 5542 5542 5541 5540 5540 5539 5538 5537 5535 5534 5533 5531 5530 5529 5527 5526 5524 5522 5521 5520 5518 5517 5515 5513 5512 5511 5510 5509 5508 5506 5505 5504 5503 5501 5500 5498
5535 5534 5534 5534 5533 5533 5532 5532 5531 5530 5529 5528 5527 5526 5525 5523 5522 5520 5519 5517 5516 5514 5513 5511 5510 5508 5507 5505 5503 5502 5501 5500 5498 5497 5495 5494 5493 5491 5490 5489 5488 5486 5483
5525 5525 5524 5523 5523 5522 5521 5520 5520 5519 5518 5516 5515 5514 5512 5511 5509 5508 5506 5505 5503 5501 5500 5498 5497 5495 5494 5492 5490 5489 5488 5487 5486 5484 5482 5481 5479 5477 5475 5474 5473 5471 5469
5515 5515 5514 5513 5512 5511 5510 5509 5508 5507 5506 5504 5503 5501 5500 5498 5497 5495 5493 5492 5490 5489 5487 5486 5484 5482 5481 5479 5477 5476 5475 5473 5472 5470 5469 5467 5465 5463 5461 5459 5458 5456 5454
5505 5504 5503 5503 5502 5500 5499 5498 5497 5496 5494 5493 5491 5489 5487 5485 5484 5482 5480 5479 5477 5476 5474 5472 5471 5469 5468 5466 5464 5463 5461 5460 5458 5457 5455 5453 5451 5449 5447 5445 5443 5441 5440
5495 5494 5493 5492 5491 5489 5487 5486 5485 5483 5482 5480 5478 5477 5475 5473 5471 5469 5467 5466 5464 5462 5460 5459 5457 5456 5454 5453 5451 5450 5448 5446 5445 5443 5441 5439 5437 5435 5433 5431 5429 5427 5425
5484 5483 5482 5480 5479 5477 5476 5474 5472 5470 5469 5467 5466 5464 5462 5460 5459 5457 5454 5452 5451 5449 5447 5445 5444 5442 5441 5440 5438 5436 5435 5433 5431 5429 5427 5425 5423 5421 5419 5417 5415 5413 5411
5473 5472 5470 5469 5467 5466 5464 5461 5460 5458 5456 5455 5453 5452 5450 5448 5446 5444 5442 5440 5437 5435 5433 5432 5430 5429 5428 5426 5425 5423 5421 5419 5417 5415 5413 5411 5409 5407 5405 5403 5400 5398 5396
5463 5461 5459 5458 5456 5454 5451 5449 5448 5446 5445 5443 5442 5440 5438 5436 5434 5432 5430 5427 5425 5422 5420 5418 5417 5415 5414 5413 5411 5409 5407 5405 5403 5401 5400 5398 5395 5393 5391 5389 5386 5384 5382